Regional Weather Roundup
Issued by NWS

Home | Current Version | Previous Version | Text Only | Print | Product List | Glossary On
Versions: 1 2 3 4 5 6 7 8 9 10 11 12 13 14 15 16 17 18 19 20 21 22 23 24 25 26 27 28 29 30 31 32 33 34 35 36 37 38 39 40 41 42 43 44 45 46 47 48 49 50
000
ASUS43 KDTX 222310
RWRMI
MICHIGAN HOURLY REGIONAL WEATHER ROUNDUP
NATIONAL WEATHER SERVICE DETROIT/PONTIAC MI
700 PM EDT FRI AUG 22 2014

NOTE: "FAIR" INDICATES FEW OR NO CLOUDS BELOW 12,000 FEET WITH NO
SIGNIFICANT WEATHER AND/OR OBSTRUCTION TO VISIBILITY.

MIZ047>049-052>055-059>063-066>070-074>076-081>083-230000-
SOUTHEAST LOWER MICHIGAN

CITY           SKY/WX    TMP DP  RH WIND       PRES   REMARKS
ADRIAN         PTSUNNY   80  71  74 E6        29.97S
ALMA           PTSUNNY   77  69  76 E8        29.99S
ANN ARBOR      CLOUDY    82  68  62 E5        29.96S
BAD AXE        SUNNY     71  65  79 E6        30.03R
DETROIT CITY   CLOUDY    78  66  66 NE12      29.97S
DETROIT        PTSUNNY   80  68  66 E6        29.97S
FLINT          CLOUDY    80  65  59 E9        29.98S
GROSSE ILE     PTSUNNY   77  72  83 CALM      29.96R
HILLSDALE      PTSUNNY   80  73  76 CALM      29.98F
HOWELL         MOSUNNY   78  69  75 NE6       29.98S

CITY           SKY/WX    TMP DP  RH WIND       PRES   REMARKS
JACKSON        MOSUNNY   79  71  76 NE3       29.98S
LAMBERTVILLE   CLOUDY    81  70  69 CALM      29.97S
LANSING        PTSUNNY   79  70  74 NE6       29.98S
LAPEER         NOT AVBL
MASON          CLOUDY    79  71  76 CALM      29.97S
MONROE         MOSUNNY   81  70  69 CALM      29.95R
MT. CLEMENS    PTSUNNY   74  64  69 NE10      29.97R
PONTIAC        PTSUNNY   78  67  68 NE6       29.98S
PORT HOPE        N/A     64  62  93 NE5       30.02S
PORT HURON     CLOUDY    70  63  78 N6        29.99S
TRI CITIES     CLOUDY    74  62  66 NE8       30.01R
YPSILANTI      PTSUNNY   84  69  60 E8        29.97S
$$
MIZ043>046-050>051-056>058-064>065-071>073-077>080-230000-
SOUTHWEST LOWER MICHIGAN

CITY           SKY/WX    TMP DP  RH WIND       PRES   REMARKS
BATTLE CREEK   SUNNY     81  71  71 NE6       29.98S
BENTON HARBOR  MOSUNNY   79  72  79 W7        29.95R
BIG RAPIDS     CLOUDY    76  71  85 SE8       29.99S
COLDWATER      MOSUNNY   81  73  76 NE8       29.97S
HOLLAND        PTSUNNY   83  73  72 E3        29.96F
GRAND RAPIDS   PTSUNNY   81  75  82 E5        29.97S
KALAMAZOO      MOSUNNY   82  71  69 VRB5      29.96S
MARSHALL       CLOUDY    78  72  81 CALM      29.97S
MUSKEGON       PTSUNNY   79  71  76 W3        29.96S
$$
MIZ016>042-230000-
NORTHERN LOWER MICHIGAN

CITY           SKY/WX    TMP DP  RH WIND       PRES   REMARKS
ALPENA         SUNNY     71  65  81 SE9       30.03R
BEAVER ISLAND  MOSUNNY   72  65  78 E7        30.02S
BELLAIRE       CLOUDY    79  67  66 NE3       29.99R
CADILLAC       CLOUDY    75  68  79 E5        30.02R
CHARLEVOIX     SUNNY     77  68  74 NE7       30.03S
FRANKFORT      MOCLDY    80  69  68 NE6       29.98S
GAYLORD        CLOUDY    75  64  68 E5        30.04R
GRAYLING       CLOUDY    77  67  71 E7        30.04R
HARBOR SPRINGS CLOUDY    77  66  69 NE8       30.01S
HOUGHTON LAKE  CLOUDY    75  67  76 SE5       30.02S
MANISTEE       SUNNY     81  68  65 E7        29.98S
OSCODA         PTSUNNY   68  64  86 E7        30.03S
PELLSTON       CLOUDY    75  65  70 E8        30.02R
TRAVERSE CITY  CLOUDY    76  67  73 NE6       29.98R
$$
MIZ007>008-015-230000-
EASTERN UPPER MICHIGAN

CITY           SKY/WX    TMP DP  RH WIND       PRES   REMARKS
KINROSS        MOSUNNY   75  64  69 SE5       30.02S
MACKINAC ISLAN CLOUDY    71  64  79 SE5       30.02S
NEWBERRY       PTSUNNY   72  64  75 E5        30.02S
S. S. MARIE    SUNNY     77  63  61 SE6       30.01S
$$
MIZ004>006-011>014-085-230000-
CENTRAL UPPER MICHIGAN

CITY           SKY/WX    TMP DP  RH WIND       PRES   REMARKS
MANISTIQUE     CLOUDY    71  65  81 SE7       30.01R
ESCANABA       CLOUDY    70  64  83 SE7       30.00R
MENOMINEE      PTSUNNY   72  66  83 E7        29.97S
SAWYER-GWINN   CLOUDY    72  66  83 NE6       30.01S
$$
MIZ001>003-009>011-084-230000-
WESTERN UPPER MICHIGAN

CITY           SKY/WX    TMP DP  RH WIND       PRES   REMARKS
IRON MOUNTAIN  CLOUDY    75  69  81 SE3       29.98S
HOUGHTON       CLOUDY    66  61  84 E9        30.01R
COPPER HARBOR    N/A     60  56  86 CALM      30.01F
IRONWOOD       CLOUDY    63  63 100 W6        29.99R
$$

ABBREVIATIONS USED IN REMARKS
   TC - TEMPERATURE IN CELSIUS
  WCI - WIND CHILL INDEX
   HX - HEAT INDEX
  VSB - VISIBILITY



USA.gov is the U.S. government's official web portal to all federal, state and local government web resources and services.